Location: Newark
(44.3789°N, 0.6828°W)
Time: 06:01:06
(UTC+00:00)

Falcon 9 debris - Visible Passes

Search period start: 19 July 2019 00:00
Search period end: 29 July 2019 00:00
Orbit: 431 x 439 km, 53.0° (Epoch: 18 July)

Date Brightness Start Highest point End Pass type
(mag) Time Alt. Az. Time Alt. Az. Time Alt. Az.
19 Jul 4.0 01:19:49 47° ENE 01:19:49 47° ENE 01:22:23 10° ENE visible
19 Jul 5.1 02:53:22 10° WNW 02:56:17 25° NNW 02:59:13 10° NE visible
20 Jul 5.3 00:38:50 20° ENE 00:38:50 20° ENE 00:40:05 10° ENE visible
20 Jul 4.8 02:12:06 19° WNW 02:13:54 30° NNW 02:16:59 10° NE visible
20 Jul 5.7 03:49:10 10° NW 03:51:43 19° N 03:54:17 10° NE visible
21 Jul 4.4 01:31:05 35° NW 01:31:32 37° NNW 01:34:47 10° NE visible
21 Jul 5.7 03:06:42 10° NW 03:09:17 19° N 03:11:52 10° NE visible
22 Jul 4.5 00:50:01 39° NNE 00:50:01 39° NNE 00:52:34 10° NE visible
22 Jul 5.6 02:24:11 10° WNW 02:26:50 20° N 02:29:30 10° NE visible
22 Jul 5.6 04:01:54 10° NW 04:04:44 23° NNE 04:07:33 10° ENE visible
23 Jul 5.3 00:08:55 23° NE 00:08:55 23° NE 00:10:20 10° NE visible
23 Jul 5.5 01:42:10 13° WNW 01:44:24 22° NNW 01:47:12 10° NE visible
23 Jul 5.7 03:19:36 10° NW 03:22:18 21° N 03:25:00 10° ENE visible
23 Jul 5.9 23:27:44 12° ENE 23:27:44 12° ENE 23:28:05 10° ENE visible
24 Jul 5.2 01:01:00 22° NW 01:01:59 25° NNW 01:04:56 10° NE visible
24 Jul 5.8 02:37:15 10° NW 02:39:52 20° N 02:42:28 10° NE visible
25 Jul 5.0 00:19:43 30° NNW 00:19:43 30° NNW 00:22:42 10° NE visible
25 Jul 5.9 01:54:51 10° NW 01:57:24 19° N 01:59:58 10° NE visible
25 Jul 5.1 03:32:04 10° NW 03:35:12 32° NNE 03:38:20 10° E visible
25 Jul 5.0 23:38:15 30° NNE 23:38:15 30° NNE 23:40:28 10° NE visible
26 Jul 5.9 01:12:22 10° NW 01:14:57 19° N 01:17:32 10° NE visible
26 Jul 5.4 02:49:50 10° NW 02:52:49 26° NNE 02:55:47 10° ENE visible
26 Jul 4.8 22:56:17 29° NNE 22:56:17 29° NNE 22:58:15 10° NE visible
27 Jul 5.8 00:29:50 10° WNW 00:32:30 20° N 00:35:10 10° NE visible
27 Jul 5.7 02:07:34 10° NW 02:10:23 23° NNE 02:13:12 10° ENE visible
27 Jul 3.3 03:44:25 10° NW 03:47:52 75° NNE 03:51:17 10° ESE visible
27 Jul 4.7 20:33:34 10° S 20:35:52 17° SE 20:38:10 10° E visible
27 Jul 3.3 22:09:07 10° WSW 22:12:33 69° NNW 22:16:01 10° NE visible
27 Jul 5.6 23:47:15 10° WNW 23:50:03 22° NNW 23:52:51 10° NE visible
28 Jul 5.8 01:25:15 10° NW 01:27:58 21° N 01:30:38 10° ENE visible
28 Jul 3.9 03:02:10 10° NW 03:05:34 53° NNE 03:08:56 10° ESE visible
28 Jul 3.0 21:26:49 10° SW 21:30:16 82° SSE 21:33:44 10° ENE visible
28 Jul 5.4 23:04:40 10° WNW 23:07:38 25° NNW 23:10:35 10° NE visible
